Location: Prairie Dale
(45.6972°N, 104.5033°W)
Time: 11:13:17
(UTC+00:00)

SEEDS - Visible Passes

Search period start: 30 June 2022 00:00
Search period end: 10 July 2022 00:00
Orbit: 580 x 599 km, 97.6° (Epoch: 29 June)

Date Brightness Start Highest point End Pass type
(mag) Time Alt. Az. Time Alt. Az. Time Alt. Az.
02 Jul ? 09:58:45 10° ENE 10:00:09 11° E 10:01:32 10° ESE visible
03 Jul ? 10:05:52 10° ENE 10:08:04 14° E 10:10:15 10° ESE visible
04 Jul ? 10:13:15 10° NE 10:15:58 17° E 10:18:39 10° SE visible
05 Jul ? 10:20:45 10° NE 10:23:51 20° E 10:26:56 10° SE visible
06 Jul ? 10:28:21 10° NE 10:31:44 24° E 10:35:07 10° SSE visible
07 Jul ? 10:35:59 10° NE 10:39:36 29° E 10:43:13 10° SSE visible
